This is the latest recevied weather packets stored in our database for station/object KE2HEH. If no packets are shown the sender has not sent any weather packets the latest 10 day(s).
| Time | Temp. | Humidity | Pressure | Rain* | Wind** | Luminosity | Snow |
|---|---|---|---|---|---|---|---|
| 1777846654 | 16.11° C | 28% | 1011.2 hPa | 0 mm | - | 62 W/m² | - |
| 1777846351 | 15.56° C | 28% | 1011.2 hPa | 0 mm | - | 68 W/m² | - |
| 1777846047 | 15.56° C | 28% | 1011.3 hPa | 0 mm | - | 105 W/m² | - |
| 1777845745 | 15.56° C | 28% | 1011.2 hPa | 0 mm | - | 116 W/m² | - |
| 1777845441 | 15.56° C | 28% | 1011.1 hPa | 0 mm | - | 127 W/m² | - |
| 1777845139 | 15.56° C | 29% | 1011.3 hPa | 0 mm | - | 137 W/m² | - |
| 1777844837 | 15.56° C | 29% | 1011.3 hPa | 0 mm | - | 136 W/m² | - |
| 1777844533 | 15.56° C | 29% | 1011.2 hPa | 0 mm | - | 154 W/m² | - |
| 1777844231 | 15.56° C | 29% | 1011.4 hPa | 0 mm | - | 166 W/m² | - |
| 1777843928 | 15.56° C | 29% | 1011.3 hPa | 0 mm | - | 188 W/m² | - |
| 1777843625 | 15.56° C | 28% | 1011.1 hPa | 0 mm | - | 194 W/m² | - |
| 1777843323 | 15.56° C | 29% | 1011.3 hPa | 0 mm | - | 210 W/m² | - |
| 1777843020 | 15.56° C | 29% | 1011.1 hPa | 0 mm | - | 216 W/m² | - |
| 1777842715 | 15.56° C | 30% | 1011.1 hPa | 0 mm | - | 236 W/m² | - |
| 1777842412 | 15.56° C | 30% | 1011.1 hPa | 0 mm | - | 231 W/m² | - |
| 1777842109 | 15.56° C | 28% | 1011.1 hPa | 0 mm | - | 246 W/m² | - |
| 1777841804 | 15° C | 29% | 1011 hPa | 0 mm | - | 244 W/m² | - |
| 1777841501 | 15° C | 29% | 1010.9 hPa | 0 mm | - | 254 W/m² | - |
| 1777841197 | 15° C | 29% | 1011 hPa | 0 mm | - | 289 W/m² | - |
| 1777840895 | 15.56° C | 30% | 1011 hPa | 0 mm | - | 294 W/m² | - |
| 1777840592 | 15° C | 30% | 1011.1 hPa | 0 mm | - | 319 W/m² | - |
| 1777840290 | 15° C | 30% | 1011 hPa | 0 mm | - | 291 W/m² | - |
| 1777839987 | 15° C | 30% | 1011.1 hPa | 0 mm | - | 339 W/m² | - |
| 1777839685 | 15° C | 31% | 1011 hPa | 0 mm | - | 360 W/m² | - |
| 1777839383 | 15° C | 31% | 1011 hPa | 0 mm | - | 388 W/m² | - |
* Rain latest hour (hover to see other rain measurements)
** Current wind speed in m/s (hover to see current wind gust speed)